Simultaneous Nadir Overpasses (SNOs) Predictions

Prediction of SNOs between AQUA and NOAA-19 Satellite Orbit:

Table of predicted SNOs for the next 14.0 days since TLE Epoch: 4/13/2012
Index Date (AQUA) Time (AQUA) AQUA Lat,Lon Date (NOAA-19) Time (NOAA-19) NOAA-19 Lat,Lon Distance(km) Time Diff (sec)
1 04/15/2012 07:43:41 -51.71, 98.53 04/15/2012 07:43:17 -51.71, 98.54 0.43 24
2 04/15/2012 08:30:16 61.58, -88.19 04/15/2012 08:31:27 61.58, -88.17 1.07 71
3 04/17/2012 12:27:10 -54.58, 28.84 04/17/2012 12:27:12 -54.58, 28.83 0.71 2
4 04/19/2012 16:24:21 46.15, 146.49 04/19/2012 16:23:25 46.15, 146.47 1.50 56
5 04/19/2012 17:10:35 -57.66, -40.55 04/19/2012 17:11:03 -57.66, -40.55 0.12 28
6 04/21/2012 21:07:12 51.27, 77.51 04/21/2012 21:06:41 51.27, 77.52 1.04 31
7 04/21/2012 21:54:16 -59.78,-110.30 04/21/2012 21:55:11 -59.77,-110.32 1.22 55
8 04/24/2012 01:50:48 53.70, 7.57 04/24/2012 01:50:44 53.70, 7.55 1.72 4
9 04/24/2012 02:33:40 -75.85,-159.66 04/24/2012 02:34:54 -75.61,-158.51 41.32 74
10 04/26/2012 05:47:50 -46.04, 125.60 04/26/2012 05:46:40 -46.02, 125.62 3.40 70
11 04/26/2012 06:33:56 57.69, -61.36 04/26/2012 06:34:18 57.69, -61.34 1.31 22




NCC Satellite Simultaneous Nadir Overpasses (SNOs) Prediction Service
